Other Public Products
Issued by NWS Grand Forks, ND

Home | Current Version | Previous Version | Graphics & Text | Print | Product List | Glossary On
Versions: 1 2 3 4 5 6 7 8 9 10 11 12 13 14 15 16 17 18 19 20 21 22 23 24 25 26 27 28 29 30 31 32 33 34 35 36 37 38 39 40 41 42 43 44 45 46 47 48 49 50
000
FPUS83 KFGF 291131
OPUFGF
PRAIRIE TO PINES WEATHER ROUNDUP
NATIONAL WEATHER SERVICE EASTERN NORTH DAKOTA/GRAND FORKS ND
500 AM CST MON DEC 29 2014

 **SATELLITE DATA USED TO AUGMENT SKY COVER AT AUTOMATED STATIONS**
 *****  WEATHER ACROSS EASTERN NORTH DAKOTA  *****

CITY           SKY/WX    TMP DP  RH WIND       PRES   REMARKS
GRAND FORKS    PTCLDY   -12 -18  74 N8        30.63R WCI -29
GRAND FORKS AF PTCLDY   -12 -17  77 N9        30.63R WCI -30
GRAND CITY NWS   N/A    -13 N/A N/A N6          N/A  WCI -27
BUXTON           N/A    -10 -14  82 NW9         N/A  WCI -28
DEVILS LAKE    PTCLDY   -13 -22  64 N8        30.56R WCI -30
FARGO          CLEAR     -6 -12  75 N14       30.59R WCI -26
WAHPETON ARPT  FAIR      -6 -11  77 N14G20    30.56S WCI -26
$$

 *****  WEATHER ACROSS CENTRAL AND WESTERN NORTH DAKOTA  *****

CITY           SKY/WX    TMP DP  RH WIND       PRES   REMARKS
JAMESTOWN      PTCLDY    -9 -15  75 N13       30.54R WCI -29
BISMARCK       PTCLDY    -6 -12  75 N10       30.57R WCI -24
MINOT          CLEAR    -13 -19  75 NW9       30.59R WCI -31
MINOT AFB      CLEAR    -15 -20  76 NW9       30.60R WCI -33
GARRISON         N/A     -9 -14  78 N15       30.54R WCI -31
WILLISTON      PTCLDY   -10 -16  74 N6        30.61R WCI -23
DICKINSON      CLOUDY     0  -6  76 N12       30.45R WCI -17
HETTINGER      CLOUDY     0  -4  83 N12       30.45R WCI -17
$$

 *****  OTHER OBSERVATIONS NORTHEAST NORTH DAKOTA  *****

CITY           SKY/WX    TMP DP  RH WIND       PRES   REMARKS
WALHALLA         N/A    -17 -20  83 NW6       30.64R WCI -31
LANGDON        FAIR     -18 -26  69 NW13      30.54R WCI -41
CAVALIER       FAIR     -13 -18  77 NW8       30.65R WCI -30
GRAFTON        NOT AVBL
CANDO          FAIR     -17 -22  76 N7        30.59S WCI -33
FORT TOTTEN      N/A    -12 -19  71 N3        29.95S
ROLLA          FAIR     -17 -22  76 NW9       30.54S WCI -36
RUGBY          FAIR     -17 -22  76 W6        30.59S WCI -31
 ***** THE ABOVE OBSERVATIONS ARE NON NWS ARE NOT QUALITY
        CONTROLLED AND MAY MIS-REPORT RAIN FOR SNOW...
$$

 *****  OTHER OBSERVATIONS SOUTHEAST NORTH DAKOTA *****

CITY           SKY/WX    TMP DP  RH WIND       PRES   REMARKS
COOPERSTOWN    NOT AVBL
VALLEY CITY    FAIR      -8  -9  92 NW12      30.55R WCI -27
OAKES            N/A     -4  -8  84 N10       30.54S WCI -21
GWINNER        SUNNY     -4  -9  77 N12       30.55R WCI -22
SHEYENNE NWR     N/A     -6 -13  71 N7        29.95S WCI -20
BUFFALO        NOT AVBL
WYNDMERE         N/A     -6 -11  77 N9          N/A  WCI -22
 ***** THE ABOVE OBSERVATIONS ARE NON NWS ARE NOT QUALITY
       CONTROLLED AND MAY MIS-REPORT RAIN FOR SNOW...
$$

  *****  WEATHER ACROSS NORTHERN MINNESOTA  *****

CITY           SKY/WX    TMP DP  RH WIND       PRES   REMARKS
FLAG ISLAND    PTCLDY   -18 -24  76 NW13      30.51R WCI -41
WARROAD        MOCLDY   -18 -24  76 W3        30.54R
ROSEAU         MOCLDY   -15 -20  76 W6        30.56R WCI -29
HALLOCK        PTCLDY   -17 -22  76 NW7       30.63R WCI -33
THF RVR FALLS  PTCLDY   -15 -24  64 NW7       30.56R WCI -31
HALSTAD          N/A    -10 -15  78 N10         N/A  WCI -28
FOSSTON        PTCLDY   -17 -20  83 CALM      30.53R
BAUDETTE       PTCLDY   -16 -21  78 NW7       30.49R WCI -32
WASKISH        MOCLDY   -13 -18  77 CALM      30.51R
CROOKSTON      PTCLDY   -13 -17  84 N12       30.62R WCI -33
$$
  *****  WEATHER ACROSS CENTRAL AND WEST MINNESOTA  *****

CITY           SKY/WX    TMP DP  RH WIND       PRES   REMARKS
BEMIDJI        PTCLDY   -13 -18  80 NW6       30.48R WCI -27
PARK RAPIDS    CLEAR     -9 -14  78 NW6       30.45R WCI -22
WADENA         CLEAR     -6  -9  84 N9        30.46S WCI -22
DETROIT LAKES    N/A     -8  -9  92 N10       30.50S WCI -26
MOORHEAD       CLEAR     -8  -9  92 N14       30.59R WCI -28
FERGUS FALLS   CLEAR     -6 -11  77 N7        30.56S WCI -20
ELBOW LAKE     FAIR      -4  -8  81 N13       30.49R WCI -23
MORRIS MN      CLEAR     -2  -8  78 NW13      30.49R WCI -21
STAPLES        CLEAR     -6  -9  84 N7        30.47R WCI -20
WHEATON        CLEAR     -6 -11  77 N12G17    30.56R WCI -24
$$
  *****  WEATHER ELSEWHERE ACROSS MINNESOTA  *****

CITY           SKY/WX    TMP DP  RH WIND       PRES   REMARKS
DULUTH         CLEAR     -7 -13  75 NW10      30.38R WCI -25
INTRNTL FALLS  PTCLDY   -16 -22  74 NW5       30.47R WCI -29
ELY            PTCLDY   -17 -20  83 W3        30.39S
CLOQUET        CLEAR     -6 -11  77 NW10      30.41R WCI -23
BRAINERD       CLEAR     -3  -7  82 NW8       30.46R WCI -18
HIBBING        FAIR     -10 -16  74 NW8       30.42R WCI -26
ALEXANDRIA     CLEAR      0  -6  76 N7        30.44R WCI -13
SAINT CLOUD    CLEAR      4  -4  69 N5        30.45R WCI  -5
MINNEAPOLIS    CLOUDY     6  -3  66 N8        30.45R WCI  -7
$$

  *****  WEATHER ACROSS SOUTH DAKOTA  *****

CITY           SKY/WX    TMP DP  RH WIND       PRES   REMARKS
SIOUX FALLS    FLURRIES   9   5  84 NE14      30.38R WCI  -7
BROOKINGS      NOT AVBL
WATERTOWN      MOCLDY    -2  -8  76 NE13      30.41R WCI -20
HURON          CLOUDY     4  -1  80 N13       30.46R WCI -13
SISSETON         N/A     -4  -8  83 N13       30.53R WCI -23
ABERDEEN       CLOUDY     0  -7  72 N13       30.53R WCI -18
MITCHELL       LGT SNOW  10   6  84 N17       30.43R FOG     WCI  -8
PIERRE         CLOUDY     5  -1  76 NE12      30.44R WCI -11
MOBRIDGE       LGT SNOW   2  -5  72 NE13      30.46R WCI -15
RAPID CITY     LGT SNOW   7   4  87 N13       30.33R FOG     WCI  -9
$$

  *****  SOME WEATHER IN NEARBY STATES *****

CITY           SKY/WX    TMP DP  RH WIND       PRES   REMARKS
GLASGOW MT     CLOUDY    -3 -10  72 N9        30.61R WCI -19
GREAT FALLS MT LGT SNOW   1  -2  85 N9        30.50R FOG     WCI -14
CHEYENNE WY    LGT SNOW  14   9  80 N15       29.98F WCI  -1
SCOTTSBLUFF NE LGT SNOW  14  10  84 NE25      30.11S FOG     WCI  -5
OMAHA NE       CLOUDY    22  18  85 N10       30.28S WCI  11
DES MOINES IA  CLOUDY    26  22  84 NE8       30.27S WCI  18
DAVENPORT IA   PTCLDY    23  17  78 NE6       30.28S WCI  16
CHICAGO IL     MOCLDY    26  18  71 N8        30.27S WCI  18
EAU CLAIRE WI  MOCLDY     1  -6  72 CALM      30.40S
LA CROSSE WI   PTCLDY    14   8  77 N10       30.40R WCI   1
$$

  *****  SOME NATIONAL WEATHER *****

CITY           SKY/WX    TMP DP  RH WIND       PRES   REMARKS
LA GUARDIA NY  PTCLDY    39  23  52 NW9       30.15R
RALEIGH NC     RAIN      53  50  89 NE5       30.07R FOG
ATLANTA GA     CLOUDY    55  52  89 E3        30.03F
NEW ORLEANS LA CLOUDY    55  53  93 N6        30.08S FOG
OKLAHOMA CITY  PTCLDY    31  22  69 E8        30.07S WCI  23
ALBUQUERQUE NM PTCLDY    23  13  65 NE3       30.03F
SALT LAKE CITY LGT SNOW  27  26  96 NE5       30.01S FOG     WCI  22
LOS ANGELES CA CLEAR     45  35  68 E3        30.15S
BOISE ID       FOG       25  25 100 NW3       30.10R VSB 1/4
SEATTLE WA     MOCLDY    38  35  89 N10       30.20R
$$

*** WEATHER ACROSS MANITOBA...SASKATCHEWAN AND ONTARIO ***
                ***ONTARIO***

CITY           SKY/WX    TMP DP  RH WIND       PRES   REMARKS
GERALDTON      CLEAR    -15 -20  76 W8        30.20S WCI -32
THUNDER BAY    CLEAR     -9 -18  64 W9        30.40  WCI -27
SIOUX LOOKOUT  CLEAR    -20 -26  76 NW6       30.36S WCI -36
TORONTO        MOCLDY    28  18  64 N15       30.18  WCI  17
BIG TROUT LK   CLOUDY   -20 -26  76 NW15G22   30.19R WCI -45
PICKLE LAKE    CLEAR    -22 -29  69 W12       30.23  WCI -45
DRYDEN         CLEAR    -24 -29  76 W10       30.38F WCI -46
KENORA         CRYSTALS -22 -27  76 NW8       30.44S WCI -41
$$
                *** MANITOBA***

CITY           SKY/WX    TMP DP  RH WIND       PRES   REMARKS
BRANDON        CLEAR    -26 -31  75 W9        30.61  WCI -47
DAUPHIN        CLEAR    -22 -27  76 W9        30.65R WCI -42
ISLAND LAKE    CLEAR    -22 -29  69 W12       30.40R WCI -45
PILOT MOUND      N/A    -22 -27  76 W5          N/A  WCI -36
THE PAS        CLEAR    -24 -29  76 W13       30.64R WCI -48
THOMPSON       FLURRIES -18 -24  76 NW10      30.46R WCI -39
WINNIPEG       CLEAR    -24 -29  76 W9        30.63S WCI -45
CHURCHILL      LGT SNOW  -9 -15  77 N31G39    30.31R BLWGSNOWWCI -39
GILLAM         FLURRIES -13 -18  77 NW15      30.34S WCI -36
$$
                ***SASKATCHEWAN***

CITY           SKY/WX    TMP DP  RH WIND       PRES   REMARKS
ESTEVAN        PTCLDY   -18 -24  76 W9        30.62R WCI -38
KINDERSLEY     CLOUDY    -9 -15  77 NW6       30.68R WCI -23
LLOYDMINSTER   MOCLDY    -8 -13  77 NW8       30.74R WCI -23
PRINCE ALBERT  PTCLDY   -20 -26  76 W5        30.72S FOG     WCI -33
REGINA         CLEAR    -22 -27  76 NW10      30.66R WCI -44
YORKTON        CLEAR    -22 -29  69 W6        30.64R WCI -38


USA.gov is the U.S. government's official web portal to all federal, state and local government web resources and services.